Disclaimer

Please do not use the information listed here in-flight or in-navigation, as they are not provided to us by the airports but are provided by volunteers, so they might be outdated.

Search


Regions


Airport information page

No radio frequency information is available.

Airport informations:
Latitude: 60° 30' 50.91" N
Longitude: 022° 15' 46.11" E
Elevation: 161 feet - 49 meters
Operating hours: N/A
Operating agency: Civil government, landing fees and diplomatic clearance may be required
Timezone: UTC+2(+3DT)
Fuel: Jet A1+, Jet A1 with icing inhibitor.

100/130 MIL Spec, low lead, aviation gasoline (BLUE)

Runway information:
08/26 - 8202 x 197 feet< - >2500 x 60 meters

Recent METARs:
EFTU 212150Z AUTO 09003KT 9999 -SN NCD M24/M26 Q1017
EFTU 212220Z AUTO 09002KT 9999 -SN NCD M23/M25 Q1017
EFTU 212250Z AUTO VRB01KT CAVOK M24/M26 Q1017

Airport on the map: